TimeCDT,TemperatureF,Dew PointF,Humidity,Sea Level PressureIn,VisibilityMPH,Wind Direction,Wind SpeedMPH,Gust SpeedMPH,PrecipitationIn,Events,Conditions,WindDirDegrees,DateUTC
12:53 AM,55.9,54.0,93,30.00,10.0,Calm,Calm,-,N/A,,Clear,0,2012-10-31 05:53:00
1:53 AM,55.0,53.1,93,30.00,10.0,NW,3.5,-,N/A,,Clear,310,2012-10-31 06:53:00
2:53 AM,55.0,53.1,93,29.99,10.0,NW,3.5,-,N/A,,Clear,310,2012-10-31 07:53:00
3:53 AM,55.0,53.1,93,29.98,10.0,NW,5.8,-,N/A,,Clear,310,2012-10-31 08:53:00
4:36 AM,55.4,53.6,94,30.01,10.0,WNW,4.6,-,N/A,,Mostly Cloudy,300,2012-10-31 09:36:00
4:53 AM,55.0,54.0,96,29.97,10.0,NNW,5.8,-,N/A,,Mostly Cloudy,340,2012-10-31 09:53:00
5:53 AM,55.9,55.0,97,29.98,10.0,West,3.5,-,N/A,,Mostly Cloudy,280,2012-10-31 10:53:00
6:53 AM,57.0,55.0,93,29.98,10.0,WNW,3.5,-,N/A,,Mostly Cloudy,300,2012-10-31 11:53:00
7:42 AM,57.2,57.2,100,30.04,10.0,WNW,4.6,-,N/A,,Overcast,290,2012-10-31 12:42:00
7:53 AM,59.0,57.0,93,30.00,10.0,NW,4.6,-,N/A,,Overcast,310,2012-10-31 12:53:00
8:53 AM,62.1,60.1,93,30.02,10.0,NNW,3.5,-,N/A,,Overcast,340,2012-10-31 13:53:00
9:49 AM,68.0,62.6,83,30.08,10.0,NW,3.5,-,N/A,,Mostly Cloudy,320,2012-10-31 14:49:00
9:53 AM,69.1,64.0,84,30.04,10.0,Variable,3.5,-,N/A,,Mostly Cloudy,0,2012-10-31 14:53:00
10:09 AM,69.8,64.4,83,30.08,10.0,WNW,4.6,-,N/A,,Mostly Cloudy,290,2012-10-31 15:09:00
10:53 AM,71.1,66.0,84,30.05,10.0,Variable,3.5,-,N/A,,Mostly Cloudy,0,2012-10-31 15:53:00
11:53 AM,73.9,66.9,79,30.05,10.0,Variable,4.6,-,N/A,,Mostly Cloudy,0,2012-10-31 16:53:00
12:20 PM,75.2,66.2,73,30.08,10.0,SSW,3.5,-,N/A,,Scattered Clouds,210,2012-10-31 17:20:00
12:53 PM,75.9,66.0,71,30.02,10.0,SW,4.6,-,N/A,,Partly Cloudy,230,2012-10-31 17:53:00
1:53 PM,79.0,64.0,60,29.99,10.0,SSE,5.8,-,N/A,,Partly Cloudy,150,2012-10-31 18:53:00
2:53 PM,81.0,61.0,50,29.96,10.0,Calm,Calm,-,N/A,,Partly Cloudy,0,2012-10-31 19:53:00
3:53 PM,80.1,60.1,50,29.95,10.0,Calm,Calm,-,N/A,,Partly Cloudy,0,2012-10-31 20:53:00
4:53 PM,82.0,60.1,47,29.94,10.0,Calm,Calm,-,N/A,,Partly Cloudy,0,2012-10-31 21:53:00
5:53 PM,79.0,62.1,56,29.95,10.0,East,4.6,-,N/A,,Partly Cloudy,100,2012-10-31 22:53:00
6:53 PM,75.0,60.1,60,29.96,10.0,SSE,5.8,-,N/A,,Clear,160,2012-10-31 23:53:00
7:53 PM,72.0,57.0,59,29.97,10.0,Calm,Calm,-,N/A,,Clear,0,2012-11-01 00:53:00
8:53 PM,68.0,61.0,78,29.99,10.0,NW,3.5,-,N/A,,Clear,320,2012-11-01 01:53:00
9:53 PM,64.9,60.1,84,30.00,10.0,NW,4.6,-,N/A,,Clear,310,2012-11-01 02:53:00
10:53 PM,63.0,59.0,87,30.00,10.0,NW,5.8,-,N/A,,Clear,310,2012-11-01 03:53:00
11:53 PM,59.0,57.0,93,30.01,10.0,ESE,3.5,-,N/A,,Clear,110,2012-11-01 04:53:00